Вернуться в каталог

STARLINK-4561

АктивенСвязьVLEO
NORAD 53563·PAYLOAD·🇺🇸 United States

Запущен Aug 19, 2022 с Cape Canaveral Space Force Station

Loading…

Ближайшие Пролёты (ближайшие 24 часа)

TLE

СвежийSource: CelesTrak SupGP

Эпоха: Sep 15, 2026, 02:49 UTC

1 53563C 22101AN  26258.11784722 -.00015130  00000+0 -44698-3 0  2586
2 53563  53.1575 268.7728 0001310  92.5076  23.3467 15.34400261    16

Отслеживайте STARLINK-4561 в реальном времени с AllMySat

Download on the App Store